{"data":{"norad_id":57452,"epoch":"2026-05-25T04:49:09.788736Z","epoch_age_seconds":47853,"freshness":"FRESH","line1":"1 57452U 23106A   26145.20080774  .00007589  00000+0  31505-3 0  9996","line2":"2 57452  35.0041 202.2358 0002010 210.2709 149.7890 15.23129385157644","mean_motion":15.23129385,"eccentricity":0.000201,"inclination_deg":35.0041,"raan_deg":202.2358,"arg_perigee_deg":210.2709,"mean_anomaly_deg":149.789,"bstar":0.00031505,"rev_number":15764,"period_min":94.542198068091,"perigee_km":495.02649516679,"apogee_km":497.79006236885,"semimajor_km":6874.5452787678,"source":"CELESTRAK","updated_at":"2026-05-25T13:38:00.073073Z"}}